N9XP-9 Weather Reports


time (UTC)temp
C
wind
direction
speed
KPH
gust
KPH
rain 1hr
cm
rain 24hr
cm
rain mn
cm
humidity
%
barometer
mb
20260505074555 12 339 0.0 9.7 0.00 0.15 0.00 52 1003.4
20260505073100 12 240 0.0 3.2 0.00 0.15 0.00 52 1003.4
20260505071552 12 303 0.0 8.0 0.00 0.15 0.00 51 1003.2
20260505070051 12 241 0.0 1.6 0.00 0.15 0.00 52 1003.1
20260505064556 13 330 0.0 1.6 0.00 0.15 0.00 52 1002.8
20260505063045 13 156 0.0 6.4 0.00 0.15 0.00 51 1002.7
20260505061544 13 342 0.0 6.4 0.00 0.15 0.00 52 1002.8
20260505060041 13 20 0.0 1.6 0.00 0.15 0.00 53 1002.8
20260505054540 13 188 0.0 3.2 0.00 0.15 0.00 57 1002.5
20260505053104 13 202 0.0 4.8 0.00 0.15 0.00 62 1002.6
20260505051536 13 238 0.0 1.6 0.00 0.15 0.00 63 1002.3
20260505041539 15 338 0.0 3.2 0.00 0.15 0.15 73 1001.4
20260505040029 15 146 0.0 0.0 0.00 0.15 0.15 74 1001.5
20260505034532 16 150 0.0 4.8 0.00 0.15 0.15 73 1001.2
20260505033029 16 120 0.0 6.4 0.00 0.15 0.15 72 1001.2
20260505031528 16 137 1.6 6.4 0.00 0.15 0.15 71 1000.7
20260505030027 16 174 0.0 8.0 0.00 0.15 0.15 70 1000.7
20260505024527 16 158 1.6 6.4 0.00 0.15 0.15 72 1001.0
20260505023026 16 186 0.0 9.7 0.00 0.15 0.15 73 1000.6
20260505021527 16 128 0.0 4.8 0.00 0.15 0.15 74 999.9
20260505020024 16 160 1.6 4.8 0.00 0.15 0.15 74 999.4
20260505014523 16 257 1.6 8.0 0.00 0.15 0.15 74 999.3
20260505013023 17 292 1.6 12.9 0.00 0.15 0.15 73 999.0
20260505011543 17 176 3.2 16.1 0.00 0.15 0.15 75 999.0
20260505010020 17 165 3.2 14.5 0.00 0.15 0.15 77 998.7
20260505004520 17 170 1.6 20.9 0.00 0.15 0.15 79 998.8
20260505003020 17 174 0.0 4.8 0.00 0.15 0.15 79 998.1
20260505001519 17 141 3.2 17.7 0.00 0.15 0.15 79 997.7
20260505000019 15 140 0.0 1.6 0.15 0.15 0.15 91 998.3
20260504234517 15 343 0.0 1.6 0.15 0.15 0.15 91 997.9
20260504233016 15 110 0.0 6.4 0.15 0.15 0.15 86 998.1
20260504231516 15 354 1.6 11.3 0.15 0.15 0.15 80 998.3
20260504230015 21 322 0.0 8.0 0.00 0.00 0.00 59 998.1
20260504224514 22 108 1.6 11.3 0.00 0.00 0.00 51 997.5
20260504223011 23 152 4.8 17.7 0.00 0.00 0.00 47 997.9
20260504221509 24 167 6.4 22.5 0.00 0.00 0.00 44 997.8
20260504220008 25 274 4.8 12.9 0.00 0.00 0.00 39 997.9
20260504214509 26 312 3.2 17.7 0.00 0.00 0.00 38 997.8
20260504213006 26 181 6.4 19.3 0.00 0.00 0.00 35 998.0
20260504211503 26 196 6.4 29.0 0.00 0.00 0.00 35 998.3
20260504210001 26 313 8.0 19.3 0.00 0.00 0.00 35 998.5
20260504204615 26 179 6.4 20.9 0.00 0.00 0.00 36 998.6
20260504203104 26 216 4.8 19.3 0.00 0.00 0.00 35 998.6
20260504201557 25 269 6.4 17.7 0.00 0.00 0.00 33 998.7
20260504200101 25 167 1.6 25.7 0.00 0.00 0.00 39 998.9
20260504194601 25 157 4.8 17.7 0.00 0.00 0.00 38 999.2
20260504193050 25 124 6.4 20.9 0.00 0.00 0.00 39 999.6
20260504191606 25 133 9.7 22.5 0.00 0.00 0.00 35 999.6
20260504190050 25 152 4.8 20.9 0.00 0.00 0.00 37 999.6
20260504184547 25 165 6.4 16.1 0.00 0.00 0.00 32 999.8
20260504183044 25 135 4.8 16.1 0.00 0.00 0.00 32 999.9
20260504181539 24 303 6.4 17.7 0.00 0.00 0.00 31 1000.0
20260504180035 24 165 8.0 22.5 0.00 0.00 0.00 34 1000.4
20260504174533 23 117 9.7 19.3 0.00 0.03 0.00 34 1000.5
20260504173031 23 146 3.2 22.5 0.00 0.03 0.00 38 1000.7
20260504171542 23 160 4.8 14.5 0.00 0.03 0.00 39 1000.8
20260504081507 7 165 0.0 0.0 0.00 0.08 0.00 88 1004.5